Back to catalog

STARLINK-5996

AliveCommunicationsVLEO
NORAD 57227·PAYLOAD·🇺🇸 United States

Launched Jul 7, 2023 from Vandenberg Space Force Base

Loading…

Next Passes (next 24 hours)

TLE

FreshSource: CelesTrak SupGP

Epoch: Sep 14, 2026, 21:27 UTC

1 57227C 23094K   26257.89423611  .00051730  00000+0  18734-2 0  2574
2 57227  43.0017  45.4261 0001880 261.4839 107.7050 15.27556106    11

Track STARLINK-5996 in real time with AllMySat

Download on the App Store